• Join FlightAware (Why Join?)
  • Login
  • US Flag 
01:09AM EST


 

Airport Tracker/Info


-or-


 

Live Flight TrackerFlight Track Log ✈ DAL1364 ✈ 17-Apr-2014 ✈ KATL - KXNA

Flight Track Log - Related Links

Times and Time Zones

All times are in EDT time to prevent confusion due to time zone crossing. See the DAL1364 flight status page for this flight to view local times or setup timezone preferences in your user account.

Time Position Orientation Groundspeed Altitude Reporting Facility
EDT Latitude Longitude Course Direction KTS MPH feet Rate Location/Type
08:53PM 33.6500 -84.3833 259° West 163 188 2,500  Level Atlanta TRACON
08:54PM 33.6667 -84.3167 73° East 242 278 4,300 2,053 Climbing Atlanta TRACON
08:55PM 33.7569 -84.8085 291° West  Level Estimated
08:55PM 33.7333 -84.2833 23° Northeast 300 345 6,400  Level Atlanta TRACON
08:56PM 33.7931 -84.9438 259° West  Level FlightAware Approximate
08:56PM 33.8000 -84.3000 348° North 304 350 9,000  Level Atlanta TRACON
08:57PM 33.7721 -85.0773 259° West  Level FlightAware Approximate
08:58PM 33.7509 -85.2107 259° West  Level FlightAware Approximate
08:58PM 33.8100 -84.5489 273° West 318 366 13,500  Level Atlanta Center
08:59PM 33.8114 -84.6514 271° West 331 381 15,300 1,900 Climbing Atlanta Center
09:00PM 33.8108 -84.7614 270° West 331 381 17,300 1,450 Climbing Atlanta Center
09:01PM 33.8058 -84.8864 267° West 353 406 18,200 950 Climbing Atlanta Center
09:02PM 33.7944 -85.0161 264° West 380 437 19,200 1,250 Climbing Atlanta Center
09:03PM 33.7767 -85.1483 261° West 405 466 20,700 1,350 Climbing Atlanta Center
09:04PM 33.7775 -85.2883 270° West 411 473 21,900 1,250 Climbing Atlanta Center
09:05PM 33.8031 -85.4289 282° West 424 488 23,200 1,250 Climbing Atlanta Center
09:06PM 33.8283 -85.5792 281° West 429 494 24,400 1,050 Climbing Atlanta Center
09:07PM 33.8622 -85.7200 286° West 429 494 25,300 800 Climbing Atlanta Center
09:08PM 33.9000 -85.8408 291° West 441 507 26,000 350 Climbing Atlanta Center
09:09PM 33.9419 -85.9769 290° West 436 502 26,000  Level Atlanta Center
09:10PM 33.9875 -86.1133 292° West 436 502 26,000  Level Atlanta Center
09:11PM 34.0228 -86.2494 287° West 436 502 26,000  Level Atlanta Center
09:12PM 34.0639 -86.3908 289° West 436 502 26,000  Level Atlanta Center
09:13PM 34.1011 -86.5275 288° West 436 502 26,000  Level Atlanta Center
09:14PM 34.1472 -86.6903 289° West 439 505 26,000  Level Memphis Center
09:15PM 34.1864 -86.8303 289° West 439 505 26,000  Level Memphis Center
09:16PM 34.2253 -86.9697 289° West 439 505 26,000  Level Memphis Center
09:17PM 34.2639 -87.1100 288° West 439 505 26,000  Level Memphis Center
09:18PM 34.3022 -87.2481 289° West 439 505 26,000  Level Memphis Center
09:19PM 34.3492 -87.4150 289° West 439 505 26,000  Level Memphis Center
09:20PM 34.3831 -87.5567 286° West 439 505 26,000  Level Memphis Center
09:21PM 34.4244 -87.6989 289° West 442 509 26,000  Level Memphis Center
09:22PM 34.4625 -87.8386 288° West 442 509 26,000  Level Memphis Center
09:23PM 34.5042 -87.9944 288° West 442 509 26,000  Level Memphis Center
09:24PM 34.5419 -88.1369 288° West 442 509 26,000  Level Memphis Center
09:25PM 34.5797 -88.2800 288° West 443 510 26,000  Level Memphis Center
09:26PM 34.6175 -88.4233 288° West 445 512 26,000  Level Memphis Center
09:28PM 34.6586 -88.5806 288° West 447 514 26,000  Level Memphis Center
09:29PM 34.6958 -88.7247 287° West 447 514 26,000  Level Memphis Center
09:30PM 34.7333 -88.8706 287° West 447 514 26,000  Level Memphis Center
09:31PM 34.7708 -89.0150 288° West 449 517 26,000  Level Memphis Center
09:32PM 34.8086 -89.1592 288° West 449 517 26,000  Level Memphis Center
09:33PM 34.8444 -89.3039 287° West 449 517 26,000  Level Memphis Center
09:34PM 34.8878 -89.4750 287° West 448 516 26,000  Level Memphis Center
09:35PM 34.9239 -89.6158 287° West 447 514 26,000  Level Memphis Center
09:36PM 34.9606 -89.7556 288° West 447 514 26,000  Level Memphis Center
09:37PM 34.9947 -89.8972 286° West 447 514 26,000  Level Memphis Center
09:38PM 35.0317 -90.0392 288° West 447 514 26,000  Level Memphis Center
09:39PM 35.0869 -90.2081 292° West 447 514 26,000  Level Memphis Center
09:40PM 35.1314 -90.3483 291° West 447 514 26,000  Level Memphis Center
09:41PM 35.1744 -90.4889 291° West 446 513 26,000  Level Memphis Center
09:42PM 35.2200 -90.6294 292° West 446 513 26,000  Level Memphis Center
09:43PM 35.2628 -90.7692 291° West 446 513 26,000  Level Memphis Center
09:44PM 35.3056 -90.9089 291° West 444 511 26,000  Level Memphis Center
09:45PM 35.3494 -91.0461 291° West 438 504 26,000  Level Memphis Center
09:46PM 35.3953 -91.2025 290° West 437 503 26,000  Level Memphis Center
09:47PM 35.4425 -91.3503 291° West 436 502 26,000  Level Memphis Center
09:48PM 35.4806 -91.4800 290° West 436 502 26,000  Level Memphis Center
09:49PM 35.5239 -91.6197 291° West 437 503 26,000  Level Memphis Center
09:50PM 35.5639 -91.7578 290° West 436 502 26,000  Level Memphis Center
09:51PM 35.6153 -91.9239 291° West 436 502 26,000  Level Memphis Center
09:52PM 35.6553 -92.0614 290° West 435 501 26,000  Level Memphis Center
09:53PM 35.6969 -92.1997 290° West 434 499 26,000  Level Memphis Center
09:54PM 35.7369 -92.3372 290° West 434 499 26,000 -244 Level Memphis Center
09:55PM 35.7775 -92.4756 290° West 434 499 25,500 -732 Descending Memphis Center
09:56PM 35.8175 -92.6086 290° West 426 490 24,500 -976 Descending Memphis Center
09:57PM 35.8556 -92.7417 289° West 421 484 23,500 -1,073 Descending Memphis Center
09:58PM 35.9011 -92.8981 290° West 412 474 22,300 -1,073 Descending Memphis Center
09:59PM 35.9383 -93.0278 290° West 409 471 21,300 -1,512 Descending Memphis Center
10:00PM 35.9744 -93.1558 289° West 404 465 19,200 -1,820 Descending Memphis Center
10:01PM 36.0097 -93.2797 289° West 391 450 17,600 -1,561 Descending Memphis Center
10:02PM 36.0439 -93.3978 290° West 374 430 16,000 -1,561 Descending Memphis Center
10:03PM 36.0689 -93.5122 285° West 356 410 14,400 -2,098 Descending Memphis Center
10:04PM 36.0861 -93.6303 280° West 354 407 11,700 -2,098 Descending Memphis Center
10:05PM 36.1064 -93.7572 281° West 320 368 10,100 -1,854 Descending Memphis Center
10:07PM 36.1211 -93.8458 282° West 275 316 7,900 -1,902 Descending Memphis Center
10:08PM 36.1369 -93.9433 281° West 282 325 6,200 -1,610 Descending Memphis Center
10:09PM 36.1517 -94.0350 281° West 281 323 4,600 -1,268 Descending Memphis Center
10:10PM 36.1650 -94.1189 281° West 272 313 3,600 -787 Descending Memphis Center
10:11PM 36.1767 -94.1914 281° West 236 272 3,000 -293 Descending Memphis Center
10:12PM 36.1864 -94.2578 280° West 184 212 3,000 -341 Level Memphis Center
10:13PM 36.2192 -94.2794 332° Northwest 156 180 2,300 -488 Descending Memphis Center
10:14PM 36.2578 -94.2983 338° Northwest 144 166 2,000 -290 Descending Memphis Center